AUA62J LOWW-LDDU

Flight info

Callsign AUA62J
Flight time 0h 59m
Altitude 35000
Route EMKO3C/29 STEIN DCT NOHAT DCT KOPRY DCT NETKO
Aircraft A321/M-SDE3FGHIRWY/LB1

Departure

Time 2026-04-25 19:59
Airport Vienna International Airport (LOWW)

Arrival

Time 2026-04-25 20:59
Airport Dubrovnik Ruđer Bošković Airport (LDDU)
Time Latitude Longitude Altitude Speed Heading
2026-04-25 19:34 48.11920 16.56720 597 ft 0 kts 206°
2026-04-25 19:46 48.11930 16.56727 596 ft 2 kts 206°
2026-04-25 19:46 48.11943 16.56737 596 ft 2 kts 206°
2026-04-25 19:46 48.11957 16.56746 596 ft 2 kts 206°
2026-04-25 19:46 48.11966 16.56753 596 ft 2 kts 205°
2026-04-25 19:47 48.11979 16.56752 596 ft 2 kts 144°
2026-04-25 19:47 48.11985 16.56744 596 ft 0 kts 119°
2026-04-25 19:47 48.11987 16.56736 596 ft 1 kts 115°
2026-04-25 19:47 48.11988 16.56733 596 ft 0 kts 116°
2026-04-25 19:50 48.11987 16.56736 596 ft 1 kts 108°
2026-04-25 19:50 48.11986 16.56758 596 ft 3 kts 92°
2026-04-25 19:50 48.11985 16.56803 596 ft 5 kts 92°
2026-04-25 19:51 48.11982 16.56867 596 ft 7 kts 99°
2026-04-25 19:51 48.11965 16.56946 597 ft 8 kts 114°
2026-04-25 19:51 48.11937 16.57032 597 ft 9 kts 116°
2026-04-25 19:51 48.11908 16.57120 598 ft 9 kts 116°
2026-04-25 19:52 48.11867 16.57199 599 ft 9 kts 134°
2026-04-25 19:52 48.11831 16.57284 599 ft 9 kts 116°
2026-04-25 19:52 48.11785 16.57355 600 ft 9 kts 158°
2026-04-25 19:52 48.11718 16.57386 601 ft 10 kts 165°
2026-04-25 19:53 48.11645 16.57415 602 ft 11 kts 165°
2026-04-25 19:53 48.11560 16.57449 603 ft 13 kts 165°
2026-04-25 19:53 48.11472 16.57446 603 ft 12 kts 201°
2026-04-25 19:53 48.11400 16.57395 604 ft 9 kts 207°
2026-04-25 19:54 48.11345 16.57353 605 ft 8 kts 207°
2026-04-25 19:54 48.11304 16.57296 605 ft 8 kts 255°
2026-04-25 19:54 48.11322 16.57207 605 ft 9 kts 297°
2026-04-25 19:54 48.11332 16.57176 605 ft 10 kts 297°
2026-04-25 19:55 48.11388 16.57006 603 ft 7 kts 296°
2026-04-25 19:55 48.11398 16.56973 603 ft 0 kts 296°
2026-04-25 19:55 48.11403 16.56959 603 ft 4 kts 296°
2026-04-25 19:55 48.11421 16.56897 602 ft 8 kts 287°
2026-04-25 19:56 48.11400 16.56826 602 ft 8 kts 211°
2026-04-25 19:56 48.11346 16.56784 602 ft 8 kts 208°
2026-04-25 19:56 48.11325 16.56766 602 ft 0 kts 212°
2026-04-25 19:57 48.11324 16.56765 602 ft 0 kts 212°
2026-04-25 19:57 48.11322 16.56763 602 ft 1 kts 215°
2026-04-25 19:57 48.11304 16.56735 603 ft 5 kts 238°
2026-04-25 19:58 48.11293 16.56654 602 ft 10 kts 269°
2026-04-25 19:58 48.11291 16.56540 601 ft 9 kts 269°
2026-04-25 19:58 48.11292 16.56428 600 ft 11 kts 277°
2026-04-25 19:58 48.11315 16.56302 598 ft 14 kts 294°
2026-04-25 19:59 48.11440 16.55916 594 ft 75 kts 296°
2026-04-25 19:59 48.11763 16.54922 590 ft 136 kts 296°
2026-04-25 19:59 48.12242 16.53454 863 ft 162 kts 295°
2026-04-25 19:59 48.12677 16.51992 1625 ft 153 kts 288°
2026-04-25 20:00 48.12665 16.50453 2247 ft 160 kts 247°
2026-04-25 20:00 48.12444 16.49995 2418 ft 168 kts 231°
2026-04-25 20:00 48.10333 16.49318 3007 ft 209 kts 187°
2026-04-25 20:00 48.08818 16.49186 3316 ft 226 kts 192°
2026-04-25 20:01 48.05506 16.48270 4177 ft 248 kts 210°
2026-04-25 20:01 48.03981 16.47009 4733 ft 254 kts 218°
2026-04-25 20:01 48.02430 16.45478 5183 ft 269 kts 219°
2026-04-25 20:02 48.00824 16.43875 5861 ft 274 kts 219°
2026-04-25 20:02 47.99164 16.42409 6552 ft 283 kts 206°
2026-04-25 20:02 47.97165 16.42039 7222 ft 297 kts 176°
2026-04-25 20:02 47.95137 16.42719 7977 ft 300 kts 169°
2026-04-25 20:03 47.93095 16.43500 8670 ft 302 kts 169°
2026-04-25 20:03 47.91051 16.44268 9349 ft 305 kts 170°
2026-04-25 20:03 47.88977 16.45017 10014 ft 307 kts 171°
2026-04-25 20:03 47.86864 16.45720 10567 ft 314 kts 172°
2026-04-25 20:04 47.84668 16.46426 10867 ft 330 kts 172°
2026-04-25 20:04 47.82380 16.47160 11155 ft 344 kts 172°
2026-04-25 20:04 47.80001 16.47928 11615 ft 352 kts 171°
2026-04-25 20:04 47.77579 16.48717 12253 ft 355 kts 171°
2026-04-25 20:05 47.75135 16.49515 12883 ft 357 kts 171°
2026-04-25 20:05 47.72675 16.50318 13475 ft 360 kts 171°
2026-04-25 20:05 47.70233 16.51111 14045 ft 363 kts 171°
2026-04-25 20:05 47.67726 16.51926 14609 ft 366 kts 171°
2026-04-25 20:06 47.65231 16.52737 15167 ft 368 kts 171°
2026-04-25 20:06 47.62731 16.53546 15699 ft 371 kts 171°
2026-04-25 20:06 47.60180 16.54372 16232 ft 374 kts 171°
2026-04-25 20:06 47.57602 16.55204 16778 ft 376 kts 171°
2026-04-25 20:07 47.55024 16.56036 17286 ft 378 kts 171°
2026-04-25 20:07 47.52421 16.56874 17807 ft 380 kts 171°
2026-04-25 20:07 47.49828 16.57711 18312 ft 383 kts 171°
2026-04-25 20:07 47.47222 16.58549 18800 ft 385 kts 171°
2026-04-25 20:08 47.44618 16.59340 19272 ft 386 kts 174°
2026-04-25 20:08 47.41925 16.59901 19746 ft 387 kts 178°
2026-04-25 20:08 47.39262 16.60168 20199 ft 387 kts 182°
2026-04-25 20:08 47.36564 16.60290 20622 ft 390 kts 182°
2026-04-25 20:09 47.33842 16.60402 21050 ft 393 kts 182°
2026-04-25 20:09 47.31049 16.60516 21374 ft 399 kts 182°
2026-04-25 20:09 47.28289 16.60631 21736 ft 403 kts 182°
2026-04-25 20:09 47.25466 16.60751 22156 ft 406 kts 182°
2026-04-25 20:10 47.22645 16.60874 22585 ft 408 kts 182°
2026-04-25 20:10 47.19782 16.60996 22937 ft 410 kts 182°
2026-04-25 20:10 47.16932 16.61120 22984 ft 410 kts 182°
2026-04-25 20:10 47.14090 16.61243 22987 ft 410 kts 182°
2026-04-25 20:11 47.11226 16.61367 22987 ft 410 kts 182°
2026-04-25 20:11 47.08366 16.61491 22993 ft 410 kts 182°
2026-04-25 20:11 47.05496 16.61615 22989 ft 410 kts 182°
2026-04-25 20:11 47.02655 16.61737 22986 ft 410 kts 182°
2026-04-25 20:12 46.99822 16.61858 22985 ft 410 kts 182°
2026-04-25 20:12 46.96966 16.61979 22988 ft 410 kts 182°
2026-04-25 20:12 46.94087 16.62103 22989 ft 409 kts 182°
2026-04-25 20:12 46.93140 16.62144 22989 ft 409 kts 182°
2026-04-25 20:13 46.88381 16.62348 22994 ft 411 kts 182°
2026-04-25 20:13 46.85455 16.62471 23275 ft 415 kts 182°
2026-04-25 20:13 46.82560 16.62797 23740 ft 418 kts 176°
2026-04-25 20:13 46.79710 16.63665 24151 ft 423 kts 168°
2026-04-25 20:14 46.76894 16.65082 24526 ft 428 kts 162°
2026-04-25 20:14 46.74133 16.66713 24893 ft 430 kts 161°
2026-04-25 20:14 46.71364 16.68387 25250 ft 433 kts 161°
2026-04-25 20:14 46.68588 16.70062 25596 ft 434 kts 161°
2026-04-25 20:15 46.65758 16.71760 25942 ft 436 kts 161°
2026-04-25 20:15 46.62940 16.73439 26287 ft 438 kts 161°
2026-04-25 20:15 46.60128 16.75106 26610 ft 440 kts 161°
2026-04-25 20:15 46.57282 16.76790 26946 ft 442 kts 161°
2026-04-25 20:16 46.54443 16.78467 27256 ft 443 kts 162°
2026-04-25 20:16 46.51561 16.80165 27553 ft 446 kts 162°
2026-04-25 20:16 46.48713 16.81841 27868 ft 447 kts 162°
2026-04-25 20:16 46.45827 16.83537 28174 ft 448 kts 162°
2026-04-25 20:17 46.42921 16.85243 28463 ft 450 kts 162°
2026-04-25 20:17 46.40000 16.86955 28758 ft 452 kts 162°
2026-04-25 20:17 46.37060 16.88677 29036 ft 453 kts 162°
2026-04-25 20:17 46.34131 16.90391 29299 ft 455 kts 162°
2026-04-25 20:18 46.31173 16.92119 29551 ft 457 kts 162°
2026-04-25 20:18 46.28226 16.93808 29823 ft 457 kts 163°
2026-04-25 20:18 46.25217 16.95293 30180 ft 454 kts 167°
2026-04-25 20:18 46.22212 16.96495 30546 ft 451 kts 171°
2026-04-25 20:19 46.19157 16.97437 30886 ft 447 kts 174°
2026-04-25 20:19 46.16069 16.98162 31211 ft 446 kts 176°
2026-04-25 20:19 46.13010 16.98859 31528 ft 445 kts 176°
2026-04-25 20:19 46.09956 16.99555 31839 ft 445 kts 176°
2026-04-25 20:20 46.06903 17.00252 32068 ft 447 kts 176°
2026-04-25 20:20 46.03820 17.00946 32175 ft 451 kts 175°
2026-04-25 20:20 46.00702 17.01661 32277 ft 455 kts 175°
2026-04-25 20:20 45.97573 17.02387 32377 ft 458 kts 175°
2026-04-25 20:21 45.91240 17.03848 32561 ft 465 kts 175°
2026-04-25 20:21 45.88010 17.04589 32703 ft 467 kts 175°
2026-04-25 20:21 45.84778 17.05331 32916 ft 467 kts 175°
2026-04-25 20:22 45.81560 17.06066 33156 ft 466 kts 175°
2026-04-25 20:22 45.80484 17.06312 33229 ft 466 kts 175°
2026-04-25 20:22 45.75156 17.07526 33587 ft 465 kts 175°
2026-04-25 20:22 45.71928 17.08259 33787 ft 465 kts 175°
2026-04-25 20:23 45.68720 17.08987 33975 ft 465 kts 175°
2026-04-25 20:23 45.65516 17.09712 34166 ft 465 kts 175°
2026-04-25 20:23 45.62333 17.10431 34365 ft 465 kts 175°
2026-04-25 20:23 45.59139 17.11153 34582 ft 464 kts 175°
2026-04-25 20:24 45.55973 17.11866 34783 ft 464 kts 175°
2026-04-25 20:24 45.52763 17.12588 34970 ft 464 kts 175°
2026-04-25 20:24 45.46373 17.14023 34986 ft 463 kts 175°
2026-04-25 20:25 45.40002 17.15452 34992 ft 464 kts 175°
2026-04-25 20:25 45.33621 17.16881 34993 ft 464 kts 175°
2026-04-25 20:26 45.27255 17.18304 34993 ft 464 kts 175°
2026-04-25 20:26 45.20874 17.19728 34992 ft 464 kts 175°
2026-04-25 20:27 45.14485 17.21149 34990 ft 465 kts 175°
2026-04-25 20:27 45.08062 17.22574 34990 ft 464 kts 175°
2026-04-25 20:28 45.01714 17.23981 34979 ft 463 kts 175°
2026-04-25 20:28 44.95306 17.25394 34981 ft 464 kts 175°
2026-04-25 20:29 44.90858 17.26375 34980 ft 464 kts 175°
2026-04-25 20:29 44.84486 17.27776 34981 ft 464 kts 175°
2026-04-25 20:30 44.78068 17.29184 34990 ft 464 kts 175°
2026-04-25 20:30 44.71710 17.30578 34996 ft 464 kts 175°
2026-04-25 20:31 44.65340 17.31971 35018 ft 463 kts 175°
2026-04-25 20:31 44.58992 17.33355 35042 ft 463 kts 174°
2026-04-25 20:32 44.52586 17.34749 35054 ft 463 kts 174°
2026-04-25 20:32 44.46247 17.36126 35064 ft 463 kts 174°
2026-04-25 20:33 44.39859 17.37510 35067 ft 464 kts 174°
2026-04-25 20:33 44.35606 17.38429 35069 ft 463 kts 174°
2026-04-25 20:34 44.27147 17.40256 35073 ft 462 kts 174°
2026-04-25 20:34 44.20764 17.41629 35074 ft 462 kts 174°
2026-04-25 20:35 44.14421 17.42989 35077 ft 462 kts 174°
2026-04-25 20:35 44.08060 17.44354 35075 ft 462 kts 174°
2026-04-25 20:36 44.01695 17.45714 35075 ft 462 kts 174°
2026-04-25 20:36 43.95333 17.47072 34618 ft 463 kts 174°
2026-04-25 20:37 43.92162 17.47748 34128 ft 464 kts 174°
2026-04-25 20:37 43.88951 17.48420 33529 ft 464 kts 175°
2026-04-25 20:37 43.85782 17.48773 32793 ft 464 kts 180°
2026-04-25 20:37 43.82476 17.48974 32118 ft 460 kts 180°
2026-04-25 20:38 43.79308 17.49134 31401 ft 457 kts 180°
2026-04-25 20:38 43.76163 17.49295 30691 ft 456 kts 180°
2026-04-25 20:38 43.72983 17.49468 30079 ft 452 kts 180°
2026-04-25 20:38 43.69877 17.49645 29493 ft 448 kts 180°
2026-04-25 20:39 43.66747 17.49828 28760 ft 447 kts 180°
2026-04-25 20:39 43.63663 17.50010 27918 ft 449 kts 180°
2026-04-25 20:39 43.60521 17.50197 27234 ft 451 kts 179°
2026-04-25 20:39 43.59492 17.50258 27039 ft 453 kts 179°
2026-04-25 20:40 43.54214 17.50577 26123 ft 456 kts 179°
2026-04-25 20:40 43.51078 17.50768 25590 ft 458 kts 179°
2026-04-25 20:40 43.47888 17.50962 25044 ft 459 kts 179°
2026-04-25 20:40 43.44686 17.51155 24499 ft 461 kts 179°
2026-04-25 20:41 43.41485 17.51348 23969 ft 462 kts 179°
2026-04-25 20:41 43.38289 17.51540 23431 ft 463 kts 179°
2026-04-25 20:41 43.35080 17.51732 22871 ft 465 kts 179°
2026-04-25 20:41 43.31808 17.51928 22299 ft 467 kts 179°
2026-04-25 20:42 43.28592 17.52119 21753 ft 468 kts 178°
2026-04-25 20:42 43.25318 17.52315 21188 ft 470 kts 178°
2026-04-25 20:42 43.22059 17.52510 20620 ft 471 kts 178°
2026-04-25 20:42 43.18784 17.52706 20068 ft 473 kts 178°
2026-04-25 20:43 43.15493 17.52903 19497 ft 472 kts 178°
2026-04-25 20:43 43.12248 17.53097 18939 ft 469 kts 178°
2026-04-25 20:43 43.08992 17.53291 18361 ft 466 kts 178°
2026-04-25 20:43 43.05760 17.53483 17810 ft 455 kts 178°
2026-04-25 20:44 43.02699 17.53664 17293 ft 438 kts 178°
2026-04-25 20:44 42.99714 17.53838 16788 ft 421 kts 178°
2026-04-25 20:44 42.96819 17.54007 16281 ft 407 kts 178°
2026-04-25 20:44 42.94056 17.54169 15784 ft 394 kts 178°
2026-04-25 20:45 42.91348 17.54078 15271 ft 382 kts 188°
2026-04-25 20:45 42.88819 17.53177 14770 ft 370 kts 202°
2026-04-25 20:45 42.86534 17.51681 14279 ft 362 kts 208°
2026-04-25 20:45 42.84317 17.50050 13782 ft 359 kts 209°
2026-04-25 20:46 42.82153 17.48453 13292 ft 350 kts 209°
2026-04-25 20:46 42.80034 17.46914 12808 ft 343 kts 208°
2026-04-25 20:46 42.77835 17.45807 12299 ft 338 kts 187°
2026-04-25 20:46 42.75521 17.46135 11805 ft 332 kts 158°
2026-04-25 20:47 42.73661 17.47863 11316 ft 325 kts 128°
2026-04-25 20:47 42.72551 17.50444 10848 ft 318 kts 112°
2026-04-25 20:47 42.71666 17.53184 10359 ft 316 kts 111°
2026-04-25 20:47 42.70770 17.55887 9870 ft 314 kts 112°
2026-04-25 20:48 42.69830 17.58552 9378 ft 311 kts 114°
2026-04-25 20:48 42.68869 17.61156 8888 ft 309 kts 115°
2026-04-25 20:48 42.67887 17.63744 8395 ft 307 kts 115°
2026-04-25 20:48 42.66903 17.66296 7902 ft 305 kts 116°
2026-04-25 20:49 42.65920 17.68830 7467 ft 301 kts 116°
2026-04-25 20:49 42.64961 17.71290 7098 ft 295 kts 116°
2026-04-25 20:49 42.64004 17.73739 6723 ft 289 kts 116°
2026-04-25 20:49 42.63079 17.76104 6353 ft 284 kts 116°
2026-04-25 20:50 42.62159 17.78457 5978 ft 279 kts 116°
2026-04-25 20:50 42.61259 17.80756 5608 ft 276 kts 116°
2026-04-25 20:50 42.60358 17.83062 5233 ft 275 kts 116°
2026-04-25 20:50 42.59472 17.85323 5039 ft 269 kts 117°
2026-04-25 20:51 42.58588 17.87578 5039 ft 270 kts 117°
2026-04-25 20:51 42.57700 17.89840 5039 ft 271 kts 117°
2026-04-25 20:51 42.56821 17.92076 4958 ft 271 kts 117°
2026-04-25 20:51 42.55930 17.94344 4828 ft 270 kts 117°
2026-04-25 20:52 42.55047 17.96588 4703 ft 269 kts 116°
2026-04-25 20:52 42.54469 17.98059 4622 ft 269 kts 116°
2026-04-25 20:52 42.53292 18.01050 4449 ft 269 kts 116°
2026-04-25 20:52 42.52412 18.03283 4319 ft 267 kts 116°
2026-04-25 20:53 42.51553 18.05457 4184 ft 256 kts 116°
2026-04-25 20:53 42.50732 18.07531 4056 ft 246 kts 116°
2026-04-25 20:53 42.49939 18.09537 4010 ft 240 kts 116°
2026-04-25 20:53 42.49141 18.11558 4010 ft 240 kts 116°
2026-04-25 20:54 42.48542 18.13643 3999 ft 238 kts 98°
2026-04-25 20:54 42.48481 18.15853 3994 ft 233 kts 86°
2026-04-25 20:54 42.48555 18.18020 3734 ft 230 kts 85°
2026-04-25 20:54 42.48636 18.20159 3490 ft 225 kts 85°
2026-04-25 20:55 42.48720 18.22234 3337 ft 215 kts 85°
2026-04-25 20:55 42.48750 18.24153 3407 ft 190 kts 87°
2026-04-25 20:55 42.48763 18.25873 3260 ft 178 kts 86°
2026-04-25 20:55 42.48788 18.27496 2988 ft 167 kts 86°
2026-04-25 20:56 42.48817 18.29000 2715 ft 157 kts 86°
2026-04-25 20:56 42.48846 18.30488 2512 ft 156 kts 85°
2026-04-25 20:56 42.48995 18.31926 2349 ft 155 kts 71°
2026-04-25 20:56 42.49477 18.33226 2203 ft 154 kts 46°
2026-04-25 20:57 42.50380 18.33881 1993 ft 151 kts
2026-04-25 20:57 42.51392 18.33553 1576 ft 151 kts 336°
2026-04-25 20:57 42.52358 18.33051 1271 ft 149 kts 338°
2026-04-25 20:57 42.53326 18.32512 1120 ft 148 kts 332°
2026-04-25 20:58 42.54111 18.31621 1047 ft 148 kts 309°
2026-04-25 20:58 42.54684 18.30471 920 ft 148 kts 299°
2026-04-25 20:58 42.55170 18.29238 731 ft 148 kts 298°
2026-04-25 20:58 42.55658 18.28013 515 ft 146 kts 298°
2026-04-25 20:59 42.56097 18.26911 515 ft 112 kts 298°
2026-04-25 20:59 42.56389 18.26190 524 ft 63 kts 297°
2026-04-25 20:59 42.56535 18.25822 523 ft 23 kts 298°
2026-04-25 20:59 42.56549 18.25651 521 ft 16 kts 249°
2026-04-25 21:00 42.56480 18.25534 519 ft 15 kts 182°
2026-04-25 21:00 42.56451 18.25558 520 ft 14 kts 118°
2026-04-25 21:00 42.56331 18.25861 523 ft 13 kts 117°
2026-04-25 21:01 42.56280 18.25919 523 ft 9 kts 198°